TimeEST,TemperatureF,Dew PointF,Humidity,Sea Level PressureIn,VisibilityMPH,Wind Direction,Wind SpeedMPH,Gust SpeedMPH,PrecipitationIn,Events,Conditions,WindDirDegrees,DateUTC
12:11 AM,46.4,35.6,66,29.60,10.0,South,12.7,19.6,N/A,,Overcast,170,2013-02-19 05:11:00
12:31 AM,46.4,35.6,66,29.60,10.0,South,13.8,18.4,N/A,,Drizzle,190,2013-02-19 05:31:00
1:31 AM,44.6,39.2,81,29.55,10.0,South,16.1,19.6,N/A,Rain,Light Rain,170,2013-02-19 06:31:00
1:51 AM,42.8,39.2,87,29.54,10.0,South,12.7,20.7,N/A,Rain,Light Rain,170,2013-02-19 06:51:00
2:11 AM,42.8,39.2,87,29.52,10.0,South,13.8,20.7,N/A,Rain,Rain,170,2013-02-19 07:11:00
2:31 AM,44.6,39.2,81,29.51,10.0,South,17.3,23.0,N/A,Rain,Light Rain,170,2013-02-19 07:31:00
2:52 AM,42.8,41.0,93,29.50,7.0,South,15.0,24.2,N/A,Rain,Light Rain,180,2013-02-19 07:52:00
3:12 AM,42.8,41.0,93,29.48,10.0,South,17.3,25.3,N/A,Rain,Light Rain,180,2013-02-19 08:12:00
3:32 AM,42.8,41.0,93,29.47,10.0,South,19.6,25.3,N/A,Rain,Rain,170,2013-02-19 08:32:00
3:52 AM,42.8,41.0,93,29.45,7.0,South,17.3,26.5,N/A,,Light Drizzle,180,2013-02-19 08:52:00
4:12 AM,42.8,41.0,93,29.45,7.0,South,19.6,25.3,N/A,Rain,Rain,190,2013-02-19 09:12:00
4:32 AM,44.6,42.8,93,29.44,5.0,SSW,19.6,29.9,N/A,,Light Drizzle,200,2013-02-19 09:32:00
4:52 AM,44.6,42.8,93,29.45,5.0,SSW,17.3,28.8,N/A,Rain,Light Rain,210,2013-02-19 09:52:00
5:12 AM,42.8,39.2,87,29.47,7.0,WSW,32.2,38.0,N/A,Rain,Light Rain,240,2013-02-19 10:12:00
5:32 AM,41.0,37.4,87,29.49,10.0,West,21.9,28.8,N/A,,Overcast,260,2013-02-19 10:32:00
5:53 AM,37.4,35.6,93,29.51,10.0,WSW,20.7,28.8,N/A,,Overcast,250,2013-02-19 10:53:00
6:13 AM,37.4,35.6,93,29.53,10.0,WSW,20.7,25.3,N/A,,Overcast,240,2013-02-19 11:13:00
6:33 AM,37.4,33.8,87,29.54,7.0,WSW,17.3,31.1,N/A,,Overcast,240,2013-02-19 11:33:00
6:53 AM,35.6,33.8,93,29.54,5.0,WSW,21.9,26.5,N/A,,Overcast,240,2013-02-19 11:53:00
7:13 AM,35.6,33.8,93,29.55,4.0,WSW,19.6,26.5,N/A,,Overcast,240,2013-02-19 12:13:00
7:53 AM,33.8,30.2,87,29.58,10.0,WSW,27.6,38.0,N/A,,Overcast,250,2013-02-19 12:53:00
8:13 AM,33.8,30.2,87,29.59,10.0,WSW,20.7,33.4,N/A,,Overcast,240,2013-02-19 13:13:00
8:34 AM,32.0,28.4,87,29.61,10.0,WSW,19.6,33.4,N/A,,Overcast,250,2013-02-19 13:34:00
8:54 AM,30.2,26.6,86,29.62,10.0,WSW,24.2,39.1,N/A,,Overcast,250,2013-02-19 13:54:00
9:14 AM,30.2,26.6,86,29.63,10.0,WSW,26.5,29.9,N/A,,Overcast,240,2013-02-19 14:14:00
9:34 AM,28.4,24.8,86,29.64,10.0,WSW,24.2,34.5,N/A,,Overcast,250,2013-02-19 14:34:00
9:54 AM,28.4,24.8,86,29.65,5.0,West,20.7,29.9,N/A,Snow,Light Snow,260,2013-02-19 14:54:00
10:14 AM,28.4,23.0,80,29.65,10.0,WSW,18.4,31.1,N/A,Snow,Light Snow,250,2013-02-19 15:14:00
10:34 AM,28.4,23.0,80,29.65,7.0,WSW,24.2,29.9,N/A,Snow,Light Snow,250,2013-02-19 15:34:00
10:54 AM,28.4,24.8,86,29.66,0.8,SW,18.4,31.1,N/A,Snow,Light Snow,230,2013-02-19 15:54:00
11:35 AM,26.6,21.2,80,29.68,2.5,WSW,20.7,32.2,N/A,Snow,Light Snow,250,2013-02-19 16:35:00
11:55 AM,26.6,21.2,80,29.68,2.0,WSW,26.5,33.4,N/A,Snow,Light Snow,240,2013-02-19 16:55:00
12:15 PM,26.6,21.2,80,29.68,0.8,WSW,25.3,33.4,N/A,Snow,Light Snow,240,2013-02-19 17:15:00
12:35 PM,26.6,21.2,80,29.69,7.0,WSW,26.5,34.5,N/A,Snow,Light Snow,240,2013-02-19 17:35:00
12:55 PM,26.6,19.4,74,29.69,10.0,WSW,23.0,28.8,N/A,,Overcast,240,2013-02-19 17:55:00
1:15 PM,26.6,17.6,69,29.70,10.0,WSW,25.3,33.4,N/A,Snow,Light Snow,250,2013-02-19 18:15:00
1:35 PM,26.6,17.6,69,29.70,10.0,WSW,25.3,32.2,N/A,,Overcast,250,2013-02-19 18:35:00
1:55 PM,24.8,15.8,69,29.71,10.0,West,24.2,32.2,N/A,Snow,Light Snow,260,2013-02-19 18:55:00
2:16 PM,24.8,15.8,69,29.71,10.0,WSW,24.2,35.7,N/A,,Overcast,250,2013-02-19 19:16:00
2:31 PM,24.8,15.8,69,29.72,10.0,West,23.0,29.9,N/A,,Overcast,260,2013-02-19 19:31:00
2:51 PM,24.8,15.8,69,29.73,10.0,West,19.6,28.8,N/A,,Overcast,270,2013-02-19 19:51:00
3:11 PM,24.8,15.8,69,29.74,10.0,West,23.0,28.8,N/A,,Overcast,260,2013-02-19 20:11:00
3:31 PM,24.8,12.2,59,29.75,10.0,WSW,26.5,38.0,N/A,,Overcast,250,2013-02-19 20:31:00
4:11 PM,24.8,14.0,64,29.77,10.0,West,24.2,34.5,N/A,,Overcast,260,2013-02-19 21:11:00
4:51 PM,24.8,12.2,59,29.80,10.0,West,24.2,35.7,N/A,,Overcast,260,2013-02-19 21:51:00
5:32 PM,23.0,12.2,63,29.82,10.0,WSW,21.9,29.9,N/A,,Overcast,250,2013-02-19 22:32:00
5:52 PM,23.0,14.0,68,29.84,10.0,West,18.4,31.1,N/A,,Overcast,260,2013-02-19 22:52:00
6:12 PM,21.2,14.0,74,29.85,4.0,West,23.0,33.4,N/A,Snow,Light Snow,260,2013-02-19 23:12:00
8:12 PM,21.2,12.2,68,29.91,10.0,WSW,23.0,29.9,N/A,,Overcast,250,2013-02-20 01:12:00
8:33 PM,21.2,12.2,68,29.91,10.0,WSW,21.9,28.8,N/A,,Overcast,250,2013-02-20 01:33:00
8:53 PM,21.2,12.2,68,29.91,10.0,West,20.7,29.9,N/A,,Overcast,260,2013-02-20 01:53:00
9:13 PM,21.2,12.2,68,29.92,10.0,West,19.6,28.8,N/A,,Overcast,260,2013-02-20 02:13:00
9:53 PM,21.2,12.2,68,29.93,10.0,WSW,21.9,27.6,N/A,,Overcast,250,2013-02-20 02:53:00
10:13 PM,21.2,14.0,74,29.93,10.0,WSW,16.1,-,N/A,,Overcast,250,2013-02-20 03:13:00
10:33 PM,19.4,14.0,80,29.94,10.0,WSW,17.3,27.6,N/A,Snow,Light Snow,250,2013-02-20 03:33:00
10:53 PM,19.4,14.0,80,29.94,10.0,WSW,19.6,-,N/A,Snow,Light Snow,250,2013-02-20 03:53:00
11:13 PM,21.2,14.0,74,29.94,10.0,WSW,17.3,24.2,N/A,Snow,Light Snow,250,2013-02-20 04:13:00
11:34 PM,19.4,15.8,86,29.94,10.0,WSW,17.3,23.0,N/A,,Overcast,250,2013-02-20 04:34:00